Location: Parc des �les de St-Timoth�e
(45.2924°N, 74.0481°W)
Time: 09:22:30
(UTC-05:00)

ISS - All Passes

Search period start: 27 January 2015 00:00
Search period end: 06 February 2015 00:00
Orbit: 402 x 410 km, 51.6° (Epoch: 27 January)

Date Brightness Start Highest point End Pass type
(mag) Time Alt. Az. Time Alt. Az. Time Alt. Az.
27 Jan - 00:44:34 10° W 00:47:38 34° NNW 00:50:43 10° NE night (unlit)
27 Jan - 02:21:51 10° NW 02:24:44 27° N 02:27:37 10° ENE night (unlit)
27 Jan - 03:58:24 10° WNW 04:01:41 59° NNE 04:04:58 10° ESE visible
27 Jan - 05:35:17 10° W 05:38:01 23° SW 05:40:42 10° SSE visible
27 Jan - 22:16:17 10° SSW 22:19:15 33° SE 22:22:17 10° ENE night (unlit)
27 Jan - 23:52:32 10° W 23:55:43 46° NNW 23:58:55 10° NE night (unlit)
28 Jan - 01:29:54 10° WNW 01:32:45 26° N 01:35:36 10° ENE night (unlit)
28 Jan - 03:06:38 10° NW 03:09:48 41° NNE 03:12:58 10° E night (unlit)
28 Jan - 04:43:12 10° WNW 04:46:20 40° SW 04:49:27 10° SE visible
28 Jan - 21:25:12 10° S 21:27:36 19° SE 21:30:03 10° E night (unlit)
28 Jan - 23:00:33 10° WSW 23:03:50 69° NNW 23:07:08 10° ENE night (unlit)
29 Jan - 00:37:50 10° WNW 00:40:44 27° N 00:43:39 10° NE night (unlit)
29 Jan - 02:14:50 10° NW 02:17:51 32° NNE 02:20:53 10° E night (unlit)
29 Jan - 03:51:17 10° WNW 03:54:35 71° SSW 03:57:53 10° SE night (unlit)
29 Jan - 05:29:44 10° WSW 05:30:37 11° SW 05:31:23 10° SW visible
29 Jan - 20:35:07 10° SSE 20:35:58 11° SE 20:36:57 10° ESE night (unlit)
29 Jan - 22:08:44 10° SW 22:12:00 73° SSE 22:15:18 10° ENE night (unlit)
29 Jan - 23:45:44 10° WNW 23:48:44 31° NNW 23:51:46 10° NE night (unlit)
30 Jan - 01:22:57 10° NW 01:25:51 27° N 01:28:46 10° ENE night (unlit)
30 Jan - 02:59:27 10° WNW 03:02:45 71° NNE 03:06:03 10° ESE night (unlit)
30 Jan - 04:36:32 10° W 04:38:59 19° SW 04:41:22 10° S visible
30 Jan - 21:17:07 10° SW 21:20:13 41° SE 21:23:21 10° ENE night (unlit)
30 Jan - 22:53:37 10° W 22:56:45 40° NNW 22:59:54 10° NE night (unlit)
31 Jan - 00:30:58 10° WNW 00:33:49 26° N 00:36:40 10° ENE night (unlit)
31 Jan - 02:07:38 10° NW 02:10:50 47° NNE 02:14:03 10° E night (unlit)
31 Jan - 03:44:16 10° WNW 03:47:16 32° SW 03:50:16 10° SSE night (unlit)
31 Jan - 20:25:47 10° SSW 20:28:28 24° SE 20:31:12 10° E night (unlit)
31 Jan - 22:01:33 10° WSW 22:04:47 58° NNW 22:08:04 10° NE night (unlit)
31 Jan - 23:38:53 10° WNW 23:41:45 26° N 23:44:37 10° NE night (unlit)
01 Feb - 01:15:46 10° NW 01:18:51 35° NNE 01:21:56 10° E night (unlit)
01 Feb - 02:52:14 10° WNW 02:55:30 57° SSW 02:58:44 10° SE night (unlit)
01 Feb - 19:35:04 10° SSE 19:36:46 14° SE 19:38:35 10° E night (unlit)
01 Feb - 21:09:36 10° WSW 21:12:53 89° SSE 21:16:11 10° ENE night (unlit)
01 Feb - 22:46:44 10° WNW 22:49:41 29° N 22:52:39 10° NE night (unlit)
02 Feb - 00:23:52 10° NW 00:26:48 29° N 00:29:45 10° ENE night (unlit)
02 Feb - 02:00:19 10° WNW 02:03:38 85° NNE 02:06:56 10° ESE night (unlit)
02 Feb - 03:37:44 10° W 03:39:47 15° SW 03:41:44 10° S night (unlit)
02 Feb - 20:17:50 10° SW 20:21:00 52° SE 20:24:14 10° ENE night (unlit)
02 Feb - 21:54:33 10° W 21:57:38 36° NNW 22:00:43 10° NE night (unlit)
02 Feb - 23:31:51 10° NW 23:34:42 26° N 23:37:34 10° ENE night (unlit)
03 Feb - 01:08:25 10° NW 01:11:41 54° NNE 01:14:56 10° ESE night (unlit)
03 Feb - 02:45:13 10° W 02:48:02 26° SW 02:50:50 10° SSE night (unlit)
03 Feb - 19:26:18 10° SSW 19:29:11 29° SE 19:32:07 10° ENE visible
03 Feb - 21:02:23 10° W 21:05:36 49° NNW 21:08:49 10° NE night (unlit)
03 Feb - 22:39:45 10° WNW 22:42:36 26° N 22:45:26 10° ENE night (unlit)
04 Feb - 00:16:32 10° NW 00:19:39 38° NNE 00:22:47 10° E night (unlit)
04 Feb - 01:53:02 10° WNW 01:56:13 45° SW 01:59:23 10° SE night (unlit)
04 Feb - 18:35:13 10° S 18:37:24 17° SE 18:39:40 10° E visible
04 Feb - 20:10:19 10° WSW 20:13:36 76° NNW 20:16:54 10° ENE visible
04 Feb - 21:47:33 10° WNW 21:50:27 28° N 21:53:22 10° NE night (unlit)
04 Feb - 23:24:35 10° NW 23:27:34 31° NNE 23:30:34 10° ENE night (unlit)
05 Feb - 01:01:01 10° WNW 01:04:19 80° SSW 01:07:37 10° SE night (unlit)
05 Feb - 02:38:58 10° WSW 02:40:23 12° SW 02:41:43 10° SSW night (unlit)
05 Feb - 19:18:24 10° SW 19:21:39 65° SSE 19:24:55 10° ENE visible
05 Feb - 20:55:19 10° W 20:58:20 33° NNW 21:01:22 10° NE night (unlit)
05 Feb - 22:32:33 10° NW 22:35:25 27° N 22:38:18 10° ENE night (unlit)
